Location: Del Amo
(33.8464°N, 118.2104°W)
Time: 07:25:14
(UTC+00:00)

Vanguard 3 - Pass Details

Date: 19 September 2024
Orbit: 507 x 3223 km, 33.3° (Epoch: 09 October)

Event Time Altitude Azimuth Distance (km) Brightness Sun altitude
Rises 15:27:41 0° 265° (W) 6,719 11.3 21.5°
Reaches altitude 10° 15:31:50 10° 265° (W) 5,898 11.1 22.3°
Maximum altitude 15:51:39 89° 179° (S) 3,154 10.6 26.3°
Drops below altitude 10° 16:08:32 10° 91° (E) 5,155 12.6 29.6°
Sets 16:11:53 0° 92° (E) 5,878 12.6 30.2°
